Year,Month,Day,Hour,Minute,Value (Times are PST for temperature in C)
2016,10,20,00,00,8.80
2016,10,20,00,01,8.80
2016,10,20,00,02,8.80
2016,10,20,00,03,8.80
2016,10,20,00,04,8.80
2016,10,20,00,05,8.80
2016,10,20,00,06,8.80
2016,10,20,00,07,8.80
2016,10,20,00,08,8.80
2016,10,20,00,09,8.80
2016,10,20,00,10,8.80
2016,10,20,00,11,8.80
2016,10,20,00,12,8.80
2016,10,20,00,13,8.80
2016,10,20,00,14,8.80
2016,10,20,00,15,8.80
2016,10,20,00,16,8.80
2016,10,20,00,17,8.80
2016,10,20,00,18,8.80
2016,10,20,00,19,8.90
2016,10,20,00,20,8.90
2016,10,20,00,21,8.90
2016,10,20,00,22,8.90
2016,10,20,00,23,8.90
2016,10,20,00,24,8.90
2016,10,20,00,25,8.90
2016,10,20,00,26,8.90
2016,10,20,00,27,8.90
2016,10,20,00,28,8.90
2016,10,20,00,29,8.90
2016,10,20,00,30,8.90
2016,10,20,00,31,8.90
2016,10,20,00,32,8.90
2016,10,20,00,33,8.90
2016,10,20,00,34,8.90
2016,10,20,00,35,8.90
2016,10,20,00,36,8.90
2016,10,20,00,37,8.90
2016,10,20,00,38,8.90
2016,10,20,00,39,8.90
2016,10,20,00,40,8.90
2016,10,20,00,41,8.90
2016,10,20,00,42,8.90
2016,10,20,00,43,8.90
2016,10,20,00,44,8.90
2016,10,20,00,45,8.90
2016,10,20,00,46,8.90
2016,10,20,00,47,8.90
2016,10,20,00,48,8.90
2016,10,20,00,49,8.90
2016,10,20,00,50,8.90
2016,10,20,00,51,8.90
2016,10,20,00,52,8.90
2016,10,20,00,53,8.90
2016,10,20,00,54,8.90
2016,10,20,00,55,8.90
2016,10,20,00,56,8.90
2016,10,20,00,57,8.90
2016,10,20,00,58,8.90
2016,10,20,00,59,8.90
2016,10,20,01,00,8.90
2016,10,20,01,01,8.90
2016,10,20,01,02,8.90
2016,10,20,01,03,8.90
2016,10,20,01,04,8.90
2016,10,20,01,05,8.90
2016,10,20,01,06,8.90
2016,10,20,01,07,8.90
2016,10,20,01,08,8.90
2016,10,20,01,09,8.90
2016,10,20,01,10,8.90
2016,10,20,01,11,8.90
2016,10,20,01,12,8.90
2016,10,20,01,13,8.90
2016,10,20,01,14,8.90
2016,10,20,01,15,8.90
2016,10,20,01,16,8.90
2016,10,20,01,17,8.90
2016,10,20,01,18,8.90
2016,10,20,01,19,8.90
2016,10,20,01,20,8.90
2016,10,20,01,21,8.90
2016,10,20,01,22,8.90
2016,10,20,01,23,8.90
2016,10,20,01,24,8.90
2016,10,20,01,25,8.90
2016,10,20,01,26,8.90
2016,10,20,01,27,8.90
2016,10,20,01,28,8.90
2016,10,20,01,29,8.90
2016,10,20,01,30,8.90
2016,10,20,01,31,8.90
2016,10,20,01,32,8.90
2016,10,20,01,33,8.90
2016,10,20,01,34,8.90
2016,10,20,01,35,8.90
2016,10,20,01,36,8.90
2016,10,20,01,37,8.90
2016,10,20,01,38,8.90
2016,10,20,01,39,8.90
2016,10,20,01,40,8.90
2016,10,20,01,41,8.90
2016,10,20,01,42,8.90
2016,10,20,01,43,8.90
2016,10,20,01,44,8.90
2016,10,20,01,45,8.90
2016,10,20,01,46,8.90
2016,10,20,01,47,8.90
2016,10,20,01,48,8.90
2016,10,20,01,49,8.90
2016,10,20,01,50,8.90
2016,10,20,01,51,8.90
2016,10,20,01,52,8.90
2016,10,20,01,53,8.90
2016,10,20,01,54,8.90
2016,10,20,01,55,8.90
2016,10,20,01,56,8.90
2016,10,20,01,57,8.90
2016,10,20,01,58,8.90
2016,10,20,01,59,8.90
2016,10,20,02,00,8.90
2016,10,20,02,01,8.90
2016,10,20,02,02,8.90
2016,10,20,02,03,8.90
2016,10,20,02,04,8.90
2016,10,20,02,05,8.90
2016,10,20,02,06,8.90
2016,10,20,02,07,8.90
2016,10,20,02,08,8.90
2016,10,20,02,09,8.90
2016,10,20,02,10,8.90
2016,10,20,02,11,8.90
2016,10,20,02,12,8.90
2016,10,20,02,13,8.90
2016,10,20,02,14,8.90
2016,10,20,02,15,8.90
2016,10,20,02,16,8.90
2016,10,20,02,17,8.90
2016,10,20,02,18,8.90
2016,10,20,02,19,8.90
2016,10,20,02,20,8.90
2016,10,20,02,21,8.90
2016,10,20,02,22,8.90
2016,10,20,02,23,8.90
2016,10,20,02,24,8.90
2016,10,20,02,25,8.90
2016,10,20,02,26,8.90
2016,10,20,02,27,8.90
2016,10,20,02,28,8.90
2016,10,20,02,29,8.90
2016,10,20,02,30,8.90
2016,10,20,02,31,8.90
2016,10,20,02,32,8.90
2016,10,20,02,33,8.90
2016,10,20,02,34,8.90
2016,10,20,02,35,8.90
2016,10,20,02,36,8.90
2016,10,20,02,37,8.90
2016,10,20,02,38,8.90
2016,10,20,02,39,8.90
2016,10,20,02,40,8.90
2016,10,20,02,41,8.90
2016,10,20,02,42,8.90
2016,10,20,02,43,8.90
2016,10,20,02,44,8.90
2016,10,20,02,45,8.90
2016,10,20,02,46,8.90
2016,10,20,02,47,8.90
2016,10,20,02,48,8.90
2016,10,20,02,49,8.90
2016,10,20,02,50,8.90
2016,10,20,02,51,8.90
2016,10,20,02,52,8.90
2016,10,20,02,53,8.90
2016,10,20,02,54,8.90
2016,10,20,02,55,8.90
2016,10,20,02,56,8.90
2016,10,20,02,57,8.90
2016,10,20,02,58,8.90
2016,10,20,02,59,8.90
2016,10,20,03,00,8.90
2016,10,20,03,01,8.90
2016,10,20,03,02,8.90
2016,10,20,03,03,8.90
2016,10,20,03,04,8.90
2016,10,20,03,05,8.90
2016,10,20,03,06,8.90
2016,10,20,03,07,8.90
2016,10,20,03,08,8.90
2016,10,20,03,09,8.90
2016,10,20,03,10,8.90
2016,10,20,03,11,8.90
2016,10,20,03,12,8.90
2016,10,20,03,13,8.90
2016,10,20,03,14,8.90
2016,10,20,03,15,8.90
2016,10,20,03,16,8.90
2016,10,20,03,17,8.90
2016,10,20,03,18,8.90
2016,10,20,03,19,8.90
2016,10,20,03,20,8.90
2016,10,20,03,21,8.90
2016,10,20,03,22,8.90
2016,10,20,03,23,8.90
2016,10,20,03,24,8.90
2016,10,20,03,25,8.90
2016,10,20,03,26,9.00
2016,10,20,03,27,8.90
2016,10,20,03,28,8.90
2016,10,20,03,29,8.90
2016,10,20,03,30,8.90
2016,10,20,03,31,8.90
2016,10,20,03,32,8.90
2016,10,20,03,33,8.90
2016,10,20,03,34,8.90
2016,10,20,03,35,8.90
2016,10,20,03,36,8.90
2016,10,20,03,37,8.90
2016,10,20,03,38,8.90
2016,10,20,03,39,8.90
2016,10,20,03,40,8.90
2016,10,20,03,41,8.90
2016,10,20,03,42,8.90
2016,10,20,03,43,8.90
2016,10,20,03,44,8.90
2016,10,20,03,45,8.90
2016,10,20,03,46,8.90
2016,10,20,03,47,8.90
2016,10,20,03,48,8.90
2016,10,20,03,49,8.90
2016,10,20,03,50,8.90
2016,10,20,03,51,8.90
2016,10,20,03,52,8.90
2016,10,20,03,53,8.90
2016,10,20,03,54,8.90
2016,10,20,03,55,8.90
2016,10,20,03,56,8.90
2016,10,20,03,57,9.00
2016,10,20,03,58,8.90
2016,10,20,03,59,9.00
2016,10,20,04,00,8.90
2016,10,20,04,01,9.00
2016,10,20,04,02,9.00
2016,10,20,04,03,9.00
2016,10,20,04,04,9.00
2016,10,20,04,05,9.00
2016,10,20,04,06,9.00
2016,10,20,04,07,9.00
2016,10,20,04,08,9.00
2016,10,20,04,09,9.00
2016,10,20,04,10,9.00
2016,10,20,04,11,9.00
2016,10,20,04,12,9.00
2016,10,20,04,13,9.10
2016,10,20,04,14,9.00
2016,10,20,04,15,9.00
2016,10,20,04,16,9.00
2016,10,20,04,17,9.00
2016,10,20,04,18,9.00
2016,10,20,04,19,9.00
2016,10,20,04,20,9.00
2016,10,20,04,21,9.00
2016,10,20,04,22,9.00
2016,10,20,04,23,9.00
2016,10,20,04,24,9.10
2016,10,20,04,25,9.10
2016,10,20,04,26,9.10
2016,10,20,04,27,9.10
2016,10,20,04,28,9.10
2016,10,20,04,29,9.10
2016,10,20,04,30,9.10
2016,10,20,04,31,9.10
2016,10,20,04,32,9.10
2016,10,20,04,33,9.10
2016,10,20,04,34,9.10
2016,10,20,04,35,9.10
2016,10,20,04,36,9.10
2016,10,20,04,37,9.10
2016,10,20,04,38,9.10
2016,10,20,04,39,9.10
2016,10,20,04,40,9.10
2016,10,20,04,41,9.10
2016,10,20,04,42,9.10
2016,10,20,04,43,9.10
2016,10,20,04,44,9.10
2016,10,20,04,45,9.10
2016,10,20,04,46,9.10
2016,10,20,04,47,9.10
2016,10,20,04,48,9.10
2016,10,20,04,49,9.10
2016,10,20,04,50,9.10
2016,10,20,04,51,9.10
2016,10,20,04,52,9.10
2016,10,20,04,53,9.10
2016,10,20,04,54,9.10
2016,10,20,04,55,9.10
2016,10,20,04,56,9.10
2016,10,20,04,57,9.10
2016,10,20,04,58,9.10
2016,10,20,04,59,9.10
2016,10,20,05,00,9.10
2016,10,20,05,01,9.10
2016,10,20,05,02,9.10
2016,10,20,05,03,9.10
2016,10,20,05,04,9.10
2016,10,20,05,05,9.10
2016,10,20,05,06,9.10
2016,10,20,05,07,9.10
2016,10,20,05,08,9.10
2016,10,20,05,09,9.10
2016,10,20,05,10,9.10
2016,10,20,05,11,9.10
2016,10,20,05,12,9.10
2016,10,20,05,13,9.10
2016,10,20,05,14,9.10
2016,10,20,05,15,9.10
2016,10,20,05,16,9.10
2016,10,20,05,17,9.10
2016,10,20,05,18,9.10
2016,10,20,05,19,9.10
2016,10,20,05,20,9.10
2016,10,20,05,21,9.10
2016,10,20,05,22,9.10
2016,10,20,05,23,9.10
2016,10,20,05,24,9.10
2016,10,20,05,25,9.10
2016,10,20,05,26,9.10
2016,10,20,05,27,9.10
2016,10,20,05,28,9.10
2016,10,20,05,29,9.10
2016,10,20,05,30,9.10
2016,10,20,05,31,9.10
2016,10,20,05,32,9.10
2016,10,20,05,33,9.10
2016,10,20,05,34,9.10
2016,10,20,05,35,9.10
2016,10,20,05,36,9.10
2016,10,20,05,37,9.10
2016,10,20,05,38,9.10
2016,10,20,05,39,9.10
2016,10,20,05,40,9.10
2016,10,20,05,41,9.20
2016,10,20,05,42,9.20
2016,10,20,05,43,9.20
2016,10,20,05,44,9.20
2016,10,20,05,45,9.20
2016,10,20,05,46,9.20
2016,10,20,05,47,9.20
2016,10,20,05,48,9.20
2016,10,20,05,49,9.20
2016,10,20,05,50,9.20
2016,10,20,05,51,9.20
2016,10,20,05,52,9.20
2016,10,20,05,53,9.20
2016,10,20,05,54,9.20
2016,10,20,05,55,9.20
2016,10,20,05,56,9.20
2016,10,20,05,57,9.20
2016,10,20,05,58,9.20
2016,10,20,05,59,9.20
2016,10,20,06,00,9.20
2016,10,20,06,01,9.20
2016,10,20,06,02,9.20
2016,10,20,06,03,9.20
2016,10,20,06,04,9.20
2016,10,20,06,05,9.20
2016,10,20,06,06,9.20
2016,10,20,06,07,9.20
2016,10,20,06,08,9.20
2016,10,20,06,09,9.30
2016,10,20,06,10,9.30
2016,10,20,06,11,9.30
2016,10,20,06,12,9.30
2016,10,20,06,13,9.30
2016,10,20,06,14,9.30
2016,10,20,06,15,9.30
2016,10,20,06,16,9.30
2016,10,20,06,17,9.30
2016,10,20,06,18,9.30
2016,10,20,06,19,9.30
2016,10,20,06,20,9.30
2016,10,20,06,21,9.30
2016,10,20,06,22,9.30
2016,10,20,06,23,9.30
2016,10,20,06,24,9.30
2016,10,20,06,25,9.30
2016,10,20,06,26,9.30
2016,10,20,06,27,9.30
2016,10,20,06,28,9.30
2016,10,20,06,29,9.30
2016,10,20,06,30,9.30
2016,10,20,06,31,9.30
2016,10,20,06,32,9.30
2016,10,20,06,33,9.30
2016,10,20,06,34,9.30
2016,10,20,06,35,9.30
2016,10,20,06,36,9.30
2016,10,20,06,37,9.30
2016,10,20,06,38,9.30
2016,10,20,06,39,9.30
2016,10,20,06,40,9.30
2016,10,20,06,41,9.30
2016,10,20,06,42,9.30
2016,10,20,06,43,9.30
2016,10,20,06,44,9.30
2016,10,20,06,45,9.30
2016,10,20,06,46,9.30
2016,10,20,06,47,9.30
2016,10,20,06,48,9.30
2016,10,20,06,49,9.30
2016,10,20,06,50,9.30
2016,10,20,06,51,9.30
2016,10,20,06,52,9.30
2016,10,20,06,53,9.30
2016,10,20,06,54,9.30
2016,10,20,06,55,9.30
2016,10,20,06,56,9.30
2016,10,20,06,57,9.30
2016,10,20,06,58,9.30
2016,10,20,06,59,9.30
2016,10,20,07,00,9.30
2016,10,20,07,01,9.30
2016,10,20,07,02,9.30
2016,10,20,07,03,9.30
2016,10,20,07,04,9.30
2016,10,20,07,05,9.30
2016,10,20,07,06,9.30
2016,10,20,07,07,9.30
2016,10,20,07,08,9.30
2016,10,20,07,09,9.30
2016,10,20,07,10,9.30
2016,10,20,07,11,9.40
2016,10,20,07,12,9.30
2016,10,20,07,13,9.30
2016,10,20,07,14,9.40
2016,10,20,07,15,9.40
2016,10,20,07,16,9.40
2016,10,20,07,17,9.40
2016,10,20,07,18,9.40
2016,10,20,07,19,9.40
2016,10,20,07,20,9.40
2016,10,20,07,21,9.40
2016,10,20,07,22,9.40
2016,10,20,07,23,9.40
2016,10,20,07,24,9.40
2016,10,20,07,25,9.40
2016,10,20,07,26,9.40
2016,10,20,07,27,9.40
2016,10,20,07,28,9.40
2016,10,20,07,29,9.40
2016,10,20,07,30,9.40
2016,10,20,07,31,9.40
2016,10,20,07,32,9.40
2016,10,20,07,33,9.40
2016,10,20,07,34,9.40
2016,10,20,07,35,9.40
2016,10,20,07,36,9.40
2016,10,20,07,37,9.40
2016,10,20,07,38,9.40
2016,10,20,07,39,9.40
2016,10,20,07,40,9.40
2016,10,20,07,41,9.40
2016,10,20,07,42,9.40
2016,10,20,07,43,9.40
2016,10,20,07,44,9.40
2016,10,20,07,45,9.40
2016,10,20,07,46,9.40
2016,10,20,07,47,9.40
2016,10,20,07,48,9.40
2016,10,20,07,49,9.40
2016,10,20,07,50,9.40
2016,10,20,07,51,9.40
2016,10,20,07,52,9.40
2016,10,20,07,53,9.40
2016,10,20,07,54,9.40
2016,10,20,07,55,9.40
2016,10,20,07,56,9.40
2016,10,20,07,57,9.40
2016,10,20,07,58,9.40
2016,10,20,07,59,9.40
2016,10,20,08,00,9.40
2016,10,20,08,01,9.40
2016,10,20,08,02,9.40
2016,10,20,08,03,9.40
2016,10,20,08,04,9.40
2016,10,20,08,05,9.40
2016,10,20,08,06,9.40
2016,10,20,08,07,9.40
2016,10,20,08,08,9.40
2016,10,20,08,09,9.40
2016,10,20,08,10,9.40
2016,10,20,08,11,9.40
2016,10,20,08,12,9.40
2016,10,20,08,13,9.40
2016,10,20,08,14,9.40
2016,10,20,08,15,9.40
2016,10,20,08,16,9.40
2016,10,20,08,17,9.40
2016,10,20,08,18,9.40
2016,10,20,08,19,9.40
2016,10,20,08,20,9.40
2016,10,20,08,21,9.40
2016,10,20,08,22,9.40
2016,10,20,08,23,9.40
2016,10,20,08,24,9.40
2016,10,20,08,25,9.40
2016,10,20,08,26,9.40
2016,10,20,08,27,9.40
2016,10,20,08,28,9.40
2016,10,20,08,29,9.30
2016,10,20,08,30,9.30
2016,10,20,08,31,9.30
2016,10,20,08,32,9.20
2016,10,20,08,33,9.20
2016,10,20,08,34,9.20
2016,10,20,08,35,9.20
2016,10,20,08,36,9.20
2016,10,20,08,37,9.20
2016,10,20,08,38,9.20
2016,10,20,08,39,9.20
2016,10,20,08,40,9.20
2016,10,20,08,41,9.20
2016,10,20,08,42,9.10
2016,10,20,08,43,9.10
2016,10,20,08,44,9.10
2016,10,20,08,45,9.10
2016,10,20,08,46,9.10
2016,10,20,08,47,9.10
2016,10,20,08,48,9.10
2016,10,20,08,49,9.10
2016,10,20,08,50,9.10
2016,10,20,08,51,9.10
2016,10,20,08,52,9.10
2016,10,20,08,53,9.10
2016,10,20,08,54,9.00
2016,10,20,08,55,9.00
2016,10,20,08,56,9.00
2016,10,20,08,57,9.00
2016,10,20,08,58,9.00
2016,10,20,08,59,9.00
2016,10,20,09,00,9.00
2016,10,20,09,01,9.00
2016,10,20,09,02,9.00
2016,10,20,09,03,9.00
2016,10,20,09,04,9.00
2016,10,20,09,05,9.10
2016,10,20,09,06,9.10
2016,10,20,09,07,9.10
2016,10,20,09,08,9.10
2016,10,20,09,09,9.10
2016,10,20,09,10,9.10
2016,10,20,09,11,9.10
2016,10,20,09,12,9.10
2016,10,20,09,13,9.10
2016,10,20,09,14,9.10
2016,10,20,09,15,9.10
2016,10,20,09,16,9.10
2016,10,20,09,17,9.10
2016,10,20,09,18,9.20
2016,10,20,09,19,9.20
2016,10,20,09,20,9.20
2016,10,20,09,21,9.20
2016,10,20,09,22,9.20
2016,10,20,09,23,9.30
2016,10,20,09,24,9.30
2016,10,20,09,25,9.30
2016,10,20,09,26,9.30
2016,10,20,09,27,9.30
2016,10,20,09,28,9.30
2016,10,20,09,29,9.30
2016,10,20,09,30,9.30
2016,10,20,09,31,9.30
2016,10,20,09,32,9.30
2016,10,20,09,33,9.30
2016,10,20,09,34,9.30
2016,10,20,09,35,9.30
2016,10,20,09,36,9.30
2016,10,20,09,37,9.40
2016,10,20,09,38,9.40
2016,10,20,09,39,9.40
2016,10,20,09,40,9.50
2016,10,20,09,41,9.50
2016,10,20,09,42,9.50
2016,10,20,09,43,9.60
2016,10,20,09,44,9.60
2016,10,20,09,45,9.60
2016,10,20,09,46,9.60
2016,10,20,09,47,9.60
2016,10,20,09,48,9.60
2016,10,20,09,49,9.60
2016,10,20,09,50,9.60
2016,10,20,09,51,9.70
2016,10,20,09,52,9.70
2016,10,20,09,53,9.70
2016,10,20,09,54,9.80
2016,10,20,09,55,9.80
2016,10,20,09,56,9.80
2016,10,20,09,57,9.80
2016,10,20,09,58,9.90
2016,10,20,09,59,9.90
2016,10,20,10,00,10.00
2016,10,20,10,01,10.00
2016,10,20,10,02,10.10
2016,10,20,10,03,10.20
2016,10,20,10,04,10.30
2016,10,20,10,05,10.40
2016,10,20,10,06,10.40
2016,10,20,10,07,10.50
2016,10,20,10,08,10.60
2016,10,20,10,09,10.60
2016,10,20,10,10,10.70
2016,10,20,10,11,10.70
2016,10,20,10,12,10.80
2016,10,20,10,13,10.80
2016,10,20,10,14,10.80
2016,10,20,10,15,10.80
2016,10,20,10,16,10.80
2016,10,20,10,17,10.80
2016,10,20,10,18,10.80
2016,10,20,10,19,10.90
2016,10,20,10,20,11.00
2016,10,20,10,21,11.10
2016,10,20,10,22,11.10
2016,10,20,10,23,11.10
2016,10,20,10,24,11.10
2016,10,20,10,25,11.10
2016,10,20,10,26,11.10
2016,10,20,10,27,11.10
2016,10,20,10,28,11.20
2016,10,20,10,29,11.20
2016,10,20,10,30,11.20
2016,10,20,10,31,11.30
2016,10,20,10,32,11.30
2016,10,20,10,33,11.30
2016,10,20,10,34,11.40
2016,10,20,10,35,11.50
2016,10,20,10,36,11.50
2016,10,20,10,37,11.60
2016,10,20,10,38,11.70
2016,10,20,10,39,11.80
2016,10,20,10,40,11.80
2016,10,20,10,41,11.90
2016,10,20,10,42,11.90
2016,10,20,10,43,11.90
2016,10,20,10,44,11.90
2016,10,20,10,45,12.00
2016,10,20,10,46,12.00
2016,10,20,10,47,12.00
2016,10,20,10,48,12.10
2016,10,20,10,49,12.10
2016,10,20,10,50,12.10
2016,10,20,10,51,12.20
2016,10,20,10,52,12.20
2016,10,20,10,53,12.30
2016,10,20,10,54,12.30
2016,10,20,10,55,12.40
2016,10,20,10,56,12.40
2016,10,20,10,57,12.50
2016,10,20,10,58,12.60
2016,10,20,10,59,12.60
2016,10,20,11,00,12.70
2016,10,20,11,01,12.80
2016,10,20,11,02,12.90
2016,10,20,11,03,13.00
2016,10,20,11,04,13.10
2016,10,20,11,05,13.20
2016,10,20,11,06,13.30
2016,10,20,11,07,13.30
2016,10,20,11,08,13.30
2016,10,20,11,09,13.40
2016,10,20,11,10,13.40
2016,10,20,11,11,13.50
2016,10,20,11,12,13.60
2016,10,20,11,13,13.60
2016,10,20,11,14,13.60
2016,10,20,11,15,13.70
2016,10,20,11,16,13.70
2016,10,20,11,17,13.70
2016,10,20,11,18,13.70
2016,10,20,11,19,13.70
2016,10,20,11,20,13.80
2016,10,20,11,21,13.80
2016,10,20,11,22,13.80
2016,10,20,11,23,13.80
2016,10,20,11,24,13.90
2016,10,20,11,25,13.90
2016,10,20,11,26,13.90
2016,10,20,11,27,14.00
2016,10,20,11,28,14.00
2016,10,20,11,29,14.00
2016,10,20,11,30,14.00
2016,10,20,11,31,14.10
2016,10,20,11,32,14.10
2016,10,20,11,33,14.10
2016,10,20,11,34,14.20
2016,10,20,11,35,14.20
2016,10,20,11,36,14.20
2016,10,20,11,37,14.20
2016,10,20,11,38,14.20
2016,10,20,11,39,14.20
2016,10,20,11,40,14.20
2016,10,20,11,41,14.20
2016,10,20,11,42,14.20
2016,10,20,11,43,14.20
2016,10,20,11,44,14.30
2016,10,20,11,45,14.30
2016,10,20,11,46,14.30
2016,10,20,11,47,14.30
2016,10,20,11,48,14.40
2016,10,20,11,49,14.40
2016,10,20,11,50,14.40
2016,10,20,11,51,14.40
2016,10,20,11,52,14.40
2016,10,20,11,53,14.40
2016,10,20,11,54,14.40
2016,10,20,11,55,14.40
2016,10,20,11,56,14.50
2016,10,20,11,57,14.50
2016,10,20,11,58,14.50
2016,10,20,11,59,14.60
2016,10,20,12,00,14.60
2016,10,20,12,01,14.70
2016,10,20,12,02,14.70
2016,10,20,12,03,14.70
2016,10,20,12,04,14.70
2016,10,20,12,05,14.70
2016,10,20,12,06,14.70
2016,10,20,12,07,14.80
2016,10,20,12,08,14.80
2016,10,20,12,09,14.80
2016,10,20,12,10,14.80
2016,10,20,12,11,14.80
2016,10,20,12,12,14.90
2016,10,20,12,13,14.90
2016,10,20,12,14,15.00
2016,10,20,12,15,15.00
2016,10,20,12,16,15.00
2016,10,20,12,17,15.00
2016,10,20,12,18,14.90
2016,10,20,12,19,14.90
2016,10,20,12,20,14.90
2016,10,20,12,21,14.90
2016,10,20,12,22,14.90
2016,10,20,12,23,14.90
2016,10,20,12,24,14.90
2016,10,20,12,25,14.90
2016,10,20,12,26,14.90
2016,10,20,12,27,14.90
2016,10,20,12,28,14.90
2016,10,20,12,29,14.80
2016,10,20,12,30,14.80
2016,10,20,12,31,14.80
2016,10,20,12,32,14.80
2016,10,20,12,33,14.80
2016,10,20,12,34,14.90
2016,10,20,12,35,14.90
2016,10,20,12,36,14.90
2016,10,20,12,37,15.00
2016,10,20,12,38,15.00
2016,10,20,12,39,15.10
2016,10,20,12,40,15.10
2016,10,20,12,41,15.10
2016,10,20,12,42,15.10
2016,10,20,12,43,15.10
2016,10,20,12,44,15.10
2016,10,20,12,45,15.10
2016,10,20,12,46,15.10
2016,10,20,12,47,15.10
2016,10,20,12,48,15.10
2016,10,20,12,49,15.10
2016,10,20,12,50,15.10
2016,10,20,12,51,15.20
2016,10,20,12,52,15.20
2016,10,20,12,53,15.20
2016,10,20,12,54,15.30
2016,10,20,12,55,15.30
2016,10,20,12,56,15.30
2016,10,20,12,57,15.30
2016,10,20,12,58,15.30
2016,10,20,12,59,15.30
2016,10,20,13,00,15.30
2016,10,20,13,01,15.30
2016,10,20,13,02,15.40
2016,10,20,13,03,15.40
2016,10,20,13,04,15.40
2016,10,20,13,05,15.40
2016,10,20,13,06,15.40
2016,10,20,13,07,15.40
2016,10,20,13,08,15.50
2016,10,20,13,09,15.50
2016,10,20,13,10,15.50
2016,10,20,13,11,15.60
2016,10,20,13,12,15.60
2016,10,20,13,13,15.60
2016,10,20,13,14,15.60
2016,10,20,13,15,15.60
2016,10,20,13,16,15.60
2016,10,20,13,17,15.60
2016,10,20,13,18,15.60
2016,10,20,13,19,15.60
2016,10,20,13,20,15.60
2016,10,20,13,21,15.60
2016,10,20,13,22,15.60
2016,10,20,13,23,15.70
2016,10,20,13,24,15.70
2016,10,20,13,25,15.70
2016,10,20,13,26,15.70
2016,10,20,13,27,15.70
2016,10,20,13,28,15.70
2016,10,20,13,29,15.70
2016,10,20,13,30,15.80
2016,10,20,13,31,15.80
2016,10,20,13,32,15.80
2016,10,20,13,33,15.80
2016,10,20,13,34,15.80
2016,10,20,13,35,15.80
2016,10,20,13,36,15.80
2016,10,20,13,37,15.80
2016,10,20,13,38,15.70
2016,10,20,13,39,15.70
2016,10,20,13,40,15.70
2016,10,20,13,41,15.70
2016,10,20,13,42,15.70
2016,10,20,13,43,15.70
2016,10,20,13,44,15.70
2016,10,20,13,45,15.70
2016,10,20,13,46,15.70
2016,10,20,13,47,15.80
2016,10,20,13,48,15.80
2016,10,20,13,49,15.80
2016,10,20,13,50,15.80
2016,10,20,13,51,15.80
2016,10,20,13,52,15.80
2016,10,20,13,53,15.70
2016,10,20,13,54,15.70
2016,10,20,13,55,15.60
2016,10,20,13,56,15.60
2016,10,20,13,57,15.60
2016,10,20,13,58,15.60
2016,10,20,13,59,15.50
2016,10,20,14,00,15.50
2016,10,20,14,01,15.50
2016,10,20,14,02,15.50
2016,10,20,14,03,15.50
2016,10,20,14,04,15.50
2016,10,20,14,05,15.60
2016,10,20,14,06,15.60
2016,10,20,14,07,15.60
2016,10,20,14,08,15.60
2016,10,20,14,09,15.70
2016,10,20,14,10,15.70
2016,10,20,14,11,15.70
2016,10,20,14,12,15.70
2016,10,20,14,13,15.80
2016,10,20,14,14,15.80
2016,10,20,14,15,15.90
2016,10,20,14,16,15.90
2016,10,20,14,17,16.00
2016,10,20,14,18,16.00
2016,10,20,14,19,16.00
2016,10,20,14,20,16.00
2016,10,20,14,21,16.00
2016,10,20,14,22,15.90
2016,10,20,14,23,15.90
2016,10,20,14,24,15.90
2016,10,20,14,25,15.90
2016,10,20,14,26,16.00
2016,10,20,14,27,16.00
2016,10,20,14,28,16.00
2016,10,20,14,29,16.00
2016,10,20,14,30,16.00
2016,10,20,14,31,16.10
2016,10,20,14,32,16.00
2016,10,20,14,33,16.00
2016,10,20,14,34,16.00
2016,10,20,14,35,16.10
2016,10,20,14,36,16.10
2016,10,20,14,37,16.10
2016,10,20,14,38,16.10
2016,10,20,14,39,16.00
2016,10,20,14,40,16.00
2016,10,20,14,41,16.00
2016,10,20,14,42,16.10
2016,10,20,14,43,16.10
2016,10,20,14,44,16.20
2016,10,20,14,45,16.30
2016,10,20,14,46,16.30
2016,10,20,14,47,16.30
2016,10,20,14,48,16.30
2016,10,20,14,49,16.30
2016,10,20,14,50,16.30
2016,10,20,14,51,16.30
2016,10,20,14,52,16.30
2016,10,20,14,53,16.40
2016,10,20,14,54,16.40
2016,10,20,14,55,16.40
2016,10,20,14,56,16.40
2016,10,20,14,57,16.30
2016,10,20,14,58,16.30
2016,10,20,14,59,16.30
2016,10,20,15,00,16.30
2016,10,20,15,01,16.40
2016,10,20,15,02,16.40
2016,10,20,15,03,16.40
2016,10,20,15,04,16.40
2016,10,20,15,05,16.40
2016,10,20,15,06,16.40
2016,10,20,15,07,16.40
2016,10,20,15,08,16.30
2016,10,20,15,09,16.30
2016,10,20,15,10,16.30
2016,10,20,15,11,16.30
2016,10,20,15,12,16.40
2016,10,20,15,13,16.50
2016,10,20,15,14,16.60
2016,10,20,15,15,16.60
2016,10,20,15,16,16.50
2016,10,20,15,17,16.50
2016,10,20,15,18,16.50
2016,10,20,15,19,16.50
2016,10,20,15,20,16.50
2016,10,20,15,21,16.50
2016,10,20,15,22,16.40
2016,10,20,15,23,16.40
2016,10,20,15,24,16.40
2016,10,20,15,25,16.40
2016,10,20,15,26,16.40
2016,10,20,15,27,16.50
2016,10,20,15,28,16.60
2016,10,20,15,29,16.60
2016,10,20,15,30,16.60
2016,10,20,15,31,16.70
2016,10,20,15,32,16.70
2016,10,20,15,33,16.70
2016,10,20,15,34,16.70
2016,10,20,15,35,16.70
2016,10,20,15,36,16.70
2016,10,20,15,37,16.70
2016,10,20,15,38,16.70
2016,10,20,15,39,16.70
2016,10,20,15,40,16.70
2016,10,20,15,41,16.70
2016,10,20,15,42,16.70
2016,10,20,15,43,16.70
2016,10,20,15,44,16.70
2016,10,20,15,45,16.70
2016,10,20,15,46,16.70
2016,10,20,15,47,16.70
2016,10,20,15,48,16.80
2016,10,20,15,49,16.80
2016,10,20,15,50,16.80
2016,10,20,15,51,16.80
2016,10,20,15,52,16.70
2016,10,20,15,53,16.70
2016,10,20,15,54,16.60
2016,10,20,15,55,16.60
2016,10,20,15,56,16.50
2016,10,20,15,57,16.40
2016,10,20,15,58,16.40
2016,10,20,15,59,16.20
2016,10,20,16,00,16.10
2016,10,20,16,01,15.90
2016,10,20,16,02,15.90
2016,10,20,16,03,15.80
2016,10,20,16,04,15.80
2016,10,20,16,05,15.80
2016,10,20,16,06,15.80
2016,10,20,16,07,15.70
2016,10,20,16,08,15.60
2016,10,20,16,09,15.60
2016,10,20,16,10,15.50
2016,10,20,16,11,15.40
2016,10,20,16,12,15.40
2016,10,20,16,13,15.30
2016,10,20,16,14,15.30
2016,10,20,16,15,15.20
2016,10,20,16,16,15.10
2016,10,20,16,17,15.10
2016,10,20,16,18,15.10
2016,10,20,16,19,15.10
2016,10,20,16,20,15.10
2016,10,20,16,21,15.10
2016,10,20,16,22,15.00
2016,10,20,16,23,15.00
2016,10,20,16,24,15.00
2016,10,20,16,25,14.90
2016,10,20,16,26,14.90
2016,10,20,16,27,14.80
2016,10,20,16,28,14.80
2016,10,20,16,29,14.70
2016,10,20,16,30,14.70
2016,10,20,16,31,14.70
2016,10,20,16,32,14.70
2016,10,20,16,33,14.60
2016,10,20,16,34,14.60
2016,10,20,16,35,14.60
2016,10,20,16,36,14.60
2016,10,20,16,37,14.60
2016,10,20,16,38,14.50
2016,10,20,16,39,14.50
2016,10,20,16,40,14.50
2016,10,20,16,41,14.50
2016,10,20,16,42,14.50
2016,10,20,16,43,14.60
2016,10,20,16,44,14.60
2016,10,20,16,45,14.60
2016,10,20,16,46,14.70
2016,10,20,16,47,14.70
2016,10,20,16,48,14.70
2016,10,20,16,49,14.70
2016,10,20,16,50,14.70
2016,10,20,16,51,14.70
2016,10,20,16,52,14.70
2016,10,20,16,53,14.70
2016,10,20,16,54,14.70
2016,10,20,16,55,14.70
2016,10,20,16,56,14.70
2016,10,20,16,57,14.70
2016,10,20,16,58,14.70
2016,10,20,16,59,14.60
2016,10,20,17,00,14.60
2016,10,20,17,01,14.60
2016,10,20,17,02,14.50
2016,10,20,17,03,14.50
2016,10,20,17,04,14.50
2016,10,20,17,05,14.50
2016,10,20,17,06,14.50
2016,10,20,17,07,14.50
2016,10,20,17,08,14.40
2016,10,20,17,09,14.40
2016,10,20,17,10,14.40
2016,10,20,17,11,14.40
2016,10,20,17,12,14.40
2016,10,20,17,13,14.40
2016,10,20,17,14,14.40
2016,10,20,17,15,14.40
2016,10,20,17,16,14.30
2016,10,20,17,17,14.30
2016,10,20,17,18,14.30
2016,10,20,17,19,14.30
2016,10,20,17,20,14.30
2016,10,20,17,21,14.30
2016,10,20,17,22,14.30
2016,10,20,17,23,14.30
2016,10,20,17,24,14.30
2016,10,20,17,25,14.30
2016,10,20,17,26,14.30
2016,10,20,17,27,14.30
2016,10,20,17,28,14.30
2016,10,20,17,29,14.30
2016,10,20,17,30,14.20
2016,10,20,17,31,14.20
2016,10,20,17,32,14.20
2016,10,20,17,33,14.20
2016,10,20,17,34,14.20
2016,10,20,17,35,14.20
2016,10,20,17,36,14.20
2016,10,20,17,37,14.20
2016,10,20,17,38,14.10
2016,10,20,17,39,14.10
2016,10,20,17,40,14.10
2016,10,20,17,41,14.00
2016,10,20,17,42,14.00
2016,10,20,17,43,13.90
2016,10,20,17,44,13.90
2016,10,20,17,45,13.90